Regional Weather Roundup
Issued by NWS Charleston, SC

Current Version | Previous Version | Graphics & Text | Print | Product List | Glossary On
Versions: 1 2 3 4 5 6 7 8 9 10 11 12 13 14 15 16 17 18 19 20 21 22 23 24 25 26 27 28 29 30 31 32 33 34 35 36 37 38 39 40 41 42 43 44 45 46 47 48 49 50
108 ASUS42 KCHS 230728 RWRCHS REGIONAL WEATHER ROUNDUP NATIONAL WEATHER SERVICE CHARLESTON SC 300 AM EDT SAT JUL 23 2016 NOTE: "FAIR" INDICATES FEW OR NO CLOUDS BELOW 12,000 FEET WITH NO SIGNIFICANT WEATHER AND/OR OBSTRUCTIONS TO VISIBILITY. NOT ALL STATIONS ARE QUALITY CONTROLLED. USE DATA WITH CAUTION... ESPECIALLY DEWPOINT OBSERVATIONS. SCZ027-030-031-034>040-042>050-230800- ...SOUTHEAST SOUTH CAROLINA... CITY SKY/WX TMP DP RH WIND PRES REMARKS N CHARLESTON CLEAR 79 74 84 SW6 30.01F WATERFRONT PRK N/A 82 77 84 VRB2 29.99F HX 90 MOUNT PLEASANT FAIR 77 73 88 CALM 30.01S JOHNS ISLAND FAIR 81 77 89 CALM 30.01F PINOPOLIS N/A 81 75 83 SW7 29.95S MONCKS CORNER FAIR 73 72 94 CALM 30.02R SUMMERVILLE FAIR 75 75 100 CALM 30.03S BEAUFORT MCAS CLEAR 80 75 84 SW3 30.02F BEAUFORT ARPT FAIR 81 77 89 SW3 30.01S HILTON HEAD IS CLEAR 82 77 83 CALM 30.02F HX 91 WALTERBORO SUNNY 79 79 100 CALM 30.02F ALLENDALE FAIR 77 73 88 CALM 30.01F ...SOUTHERN MIDLANDS AND PEE DEE... CITY SKY/WX TMP DP RH WIND PRES REMARKS GEORGETOWN FAIR 73 72 94 CALM 30.02S KINGSTREE FAIR 73 72 94 CALM 30.01F ORANGEBURG CLEAR 77 74 90 SW6 30.02F BARNWELL NOT AVBL AIKEN FAIR 75 72 88 SW6 30.05F MANNING FAIR 79 73 83 SW5 30.02S COLUMBIA CLEAR 81 73 76 W5 30.00F SUMTER CLEAR 78 74 87 S6 30.00S FLORENCE CLEAR 78 74 87 SW6 30.01F MYRTLE BEACH CLEAR 81 66 61 W3 30.03S N MYRTLE BEACH CLEAR 82 73 74 SW6 30.01F $$ GAZ063-065-086>088-099>101-113>116-118-119-134>141-150-230800- ...SOUTHEAST GEORGIA... CITY SKY/WX TMP DP RH WIND PRES REMARKS SAVANNAH ARPT CLEAR 78 74 87 S6 30.03F HUNTER AAF PTCLDY 79 78 97 SW3 30.00F FORT STEWART CLOUDY 76 73 90 CALM 30.00F STATESBORO CLEAR 75 74 94 CALM 30.02F SYLVANIA NOT AVBL CLAXTON FAIR 73 73 98 CALM 30.02F ...CSRA...CENTRAL AND FAR SOUTHEAST GEORGIA... CITY SKY/WX TMP DP RH WIND PRES REMARKS THOMSON PTCLDY 77 75 93 CALM 30.07S AUGUSTA-BUSH CLEAR 75 72 90 CALM 30.01F AUGUSTA-DANIEL CLEAR 80 71 74 S6 30.03F SWAINSBORO FAIR 77 72 83 CALM 30.03F VIDALIA PTCLDY 75 70 83 CALM 30.03S EASTMAN FAIR 78 75 91 CALM 30.05F HAZLEHURST FAIR 78 74 87 CALM 30.02F ALMA PTCLDY 76 72 87 CALM 30.03F WAYCROSS CLOUDY 78 76 92 CALM 30.03S JESUP FAIR 73 73 100 CALM 30.03S BAXLEY FAIR 73 73 100 CALM 30.03S BRUNSWICK PTCLDY 75 73 94 CALM 30.03F SAINT SIMONS CLEAR 79 72 79 CALM 30.02F $$ SCZ027-028-034-036>038-045-046-048>050-GAZ119-141-230800- ...LAKE AND SUPPLEMENTAL COASTAL OBSERVATIONS... STATION/POSITION TIME TEMP WIND PRES WAVE SWELL AIR SEA DIR/SP/G HT/PER HT/PER/DIR (UTC) (F) (DEG/KT/KT) (MB) (FT/S) (FT/S/D) WINYAH BAY 0600 80 250/ 3 1016.0 LAKE MURRAY 0600 84 230/ 9/ 13 1015.9F ACE BASIN NERRS 0600 80 CALM 1017.0S FORT PULASKI 0700 82 88 240/ 6/ 8 1017.0F SAPELO ISLAND 0700 82 230/ 6 1017.0S $$ ANZ835-935-AMZ111-154-330-350-352-354-370-450-454-472-230800- ...C-MAN AND BUOY OBSERVATIONS... STATION/POSITION TIME TEMP WIND PRES WAVE SWELL AIR SEA DIR/SP/G HT/PER HT/PER/DIR (UTC) (F) (DEG/KT/KT) (MB) (FT/S) (FT/S/D) BUOY 41004 0650 84 86 220/ 10/ 14 1016.1F 3/ 9 3/140/ 9 BUOY 41008 0650 84 86 240/ 10/ 12 1016.4F 2/ 9 2/ 90/ 9 FOLLY BEACH CMAN 0700 84 210/ 14/ 15 1016.5F CAPERS NEARSHORE 0708 84 85 230/ 12/ 16 1016.1F FRIPP NEARSHORE 0708 85 86 220/ 12/ 16 1015.6F STATION/POSITION TIME TEMP WIND PRES WAVE SWELL AIR SEA DIR/SP/G HT/PER HT/PER/DIR (UTC) (F) (DEG/KT/KT) (MB) (FT/S) (FT/S/D) 5E ST. MARYS GA 0701 86 N/A 3/10 FRYING PAN BUOY 0700 84 86 230/ 8/ 10 1016.4R BUOY 41025 0650 83 85 230/ 12/ 14 1016.3F 3/ 9 2/110/ 9 CAPE LOOKOUT NC 0700 81 220/ 6/ 7 1016.1F BUOY 41002 0650 81 85 210/ 6/ 8 1016.9F 3/ 9 3/ 70/ 9 BUOY 41010 0620 84 86 CALM / 2 1017.2S ST AUGUSTINE FL 0700 78 87 300/ 3/ 5 1018.2R $$

USA.gov is the U.S. government's official web portal to all federal, state and local government web resources and services.